EW2137 Weather Reports


Display with metric or nautical units.
time (UTC)temp
F
wind
direction
speed
MPH
gust
MPH
rain 1hr
in
rain 24hr
in
rain mn
in
humidity
%
barometer
mb
20260904223027 67 149 3.0 11.0 0.00 0.00 0.00 39 1010.8
20260904221533 67 111 5.0 10.0 0.00 0.00 0.00 40 1010.7
20260904220027 67 115 6.0 13.0 0.00 0.00 0.00 40 1010.7
20260904214525 66 68 9.0 15.0 0.00 0.00 0.00 43 1010.7
20260904213023 67 355 5.0 12.0 0.00 0.00 0.00 44 1010.6
20260904211521 66 41 6.0 10.0 0.00 0.00 0.00 44 1010.6
20260904210022 66 65 7.0 13.0 0.00 0.00 0.00 45 1010.6
20260904204519 65 65 1.0 9.0 0.00 0.00 0.00 47 1010.6
20260904203021 65 30 10.0 16.0 0.00 0.00 0.00 47 1010.7
20260904201518 64 76 11.0 14.0 0.00 0.00 0.00 46 1010.7
20260904200019 65 78 8.0 14.0 0.00 0.00 0.00 44 1010.8
20260904194516 65 102 8.0 13.0 0.00 0.00 0.00 44 1010.9
20260904193014 65 149 2.0 9.0 0.00 0.00 0.00 47 1011.0
20260904191512 64 76 5.0 12.0 0.00 0.00 0.00 49 1011.2
20260904190011 63 236 1.0 7.0 0.00 0.00 0.00 52 1011.2
20260904184512 63 79 4.0 8.0 0.00 0.00 0.00 51 1011.2
20260904183008 62 57 3.0 6.0 0.00 0.00 0.00 52 1011.3
20260904181507 62 91 1.0 7.0 0.00 0.00 0.00 52 1011.4
20260904180006 62 80 2.0 6.0 0.00 0.00 0.00 51 1011.3
20260904174503 62 63 2.0 7.0 0.00 0.00 0.00 54 1011.2
20260904173107 61 62 1.0 4.0 0.00 0.00 0.00 60 1011.1
20260904171556 60 47 2.0 6.0 0.00 0.00 0.00 61 1011.1
20260904170053 58 209 2.0 4.0 0.00 0.00 0.00 65 1011.1
20260904164550 57 337 3.0 6.0 0.00 0.00 0.00 67 1011.1
20260904163047 56 271 3.0 7.0 0.00 0.00 0.00 67 1010.9
20260904161553 56 277 2.0 6.0 0.00 0.00 0.00 71 1011.0
20260904160048 55 209 5.0 7.0 0.00 0.00 0.00 72 1011.0
20260904154540 55 223 4.0 7.0 0.00 0.00 0.00 74 1011.0
20260904153038 54 206 2.0 4.0 0.00 0.00 0.00 74 1010.9
20260904151538 54 226 3.0 7.0 0.00 0.00 0.00 77 1010.8
20260904150034 53 221 3.0 6.0 0.00 0.00 0.00 78 1010.6
20260904144529 52 224 3.0 5.0 0.00 0.00 0.00 80 1010.6
20260904143034 51 217 5.0 7.0 0.00 0.00 0.00 82 1010.7
20260904141526 50 178 3.0 9.0 0.00 0.00 0.00 82 1010.5
20260904140024 47 176 8.0 9.0 0.00 0.00 0.00 89 1010.3
20260904134520 46 181 3.0 4.0 0.00 0.00 0.00 86 1009.9
20260904133019 48 202 3.0 4.0 0.00 0.00 0.00 84 1009.8
20260904131516 49 219 1.0 3.0 0.00 0.00 0.00 83 1009.8
20260904130016 50 225 4.0 5.0 0.00 0.00 0.00 82 1009.7
20260904124515 50 212 4.0 6.0 0.00 0.00 0.00 85 1009.7
20260904123014 51 223 3.0 7.0 0.00 0.00 0.00 83 1009.7
20260904121512 51 238 5.0 7.0 0.00 0.00 0.00 83 1009.5
20260904120011 51 245 5.0 8.0 0.00 0.00 0.00 80 1009.4
20260904114511 51 234 5.0 7.0 0.00 0.00 0.00 80 1009.4
20260904113009 51 246 6.0 7.0 0.00 0.00 0.00 79 1009.2
20260904111507 50 240 2.0 5.0 0.00 0.00 0.00 82 1009.1
20260904110005 50 192 5.0 9.0 0.00 0.00 0.00 79 1009.0
20260904104505 49 195 4.0 7.0 0.00 0.00 0.00 80 1008.8
20260904103002 49 200 4.0 9.0 0.00 0.00 0.00 79 1008.6
20260904101502 49 179 9.0 11.0 0.00 0.00 0.00 77 1008.6
20260904100106 50 180 10.0 12.0 0.00 0.00 0.00 78 1008.3
20260904094607 50 200 6.0 8.0 0.00 0.00 0.00 79 1008.3
20260904093056 50 175 7.0 9.0 0.00 0.00 0.00 79 1008.2
20260904091556 48 169 3.0 6.0 0.00 0.00 0.00 82 1008.1
20260904090104 50 229 6.0 10.0 0.00 0.00 0.00 79 1008.0
20260904084556 50 240 7.0 10.0 0.00 0.00 0.00 79 1008.0
20260904083126 50 244 8.0 10.0 0.00 0.00 0.00 79 1008.0
20260904081550 50 232 9.0 12.0 0.00 0.00 0.00 79 1008.0
20260904080049 51 242 9.0 15.0 0.00 0.00 0.00 78 1007.9
20260904074549 50 227 11.0 14.0 0.00 0.00 0.00 79 1007.9
20260904073044 50 226 9.0 14.0 0.00 0.00 0.00 79 1007.8
20260904071600 51 225 9.0 12.0 0.00 0.00 0.00 79 1007.7
20260904070107 51 224 10.0 15.0 0.00 0.00 0.00 79 1007.6
20260904064539 50 236 9.0 12.0 0.00 0.00 0.00 81 1007.5
20260904063043 50 233 9.0 13.0 0.00 0.00 0.00 81 1007.5
20260904061538 51 220 8.0 11.0 0.00 0.00 0.00 81 1007.5
20260904060038 52 232 8.0 11.0 0.00 0.00 0.00 82 1007.4
20260904054546 52 234 7.0 9.0 0.00 0.00 0.00 80 1007.5
20260904053051 53 247 6.0 9.0 0.00 0.00 0.00 79 1007.5
20260904051541 54 249 7.0 10.0 0.00 0.00 0.00 77 1007.6
20260904050040 54 244 8.0 11.0 0.00 0.00 0.00 77 1007.7
20260904044536 54 242 9.0 11.0 0.00 0.00 0.00 78 1007.7
20260904043041 54 231 8.0 12.0 0.00 0.00 0.00 78 1007.7
20260904041534 54 237 9.0 12.0 0.00 0.00 0.00 77 1007.6
20260904040043 54 225 8.0 12.0 0.00 0.00 0.00 75 1007.6
20260904034536 54 232 7.0 12.0 0.00 0.01 0.00 74 1007.4
20260904033033 53 211 8.0 11.0 0.00 0.01 0.00 76 1007.2
20260904031542 54 240 8.0 13.0 0.00 0.01 0.00 74 1007.1
20260904030033 55 244 10.0 16.0 0.00 0.01 0.00 72 1006.9
20260904024534 56 246 10.0 16.0 0.00 0.01 0.00 67 1006.8
20260904023033 57 268 12.0 22.0 0.00 0.01 0.00 65 1006.7
20260904021532 57 271 12.0 19.0 0.00 0.01 0.00 64 1006.4
20260904020031 58 265 12.0 17.0 0.00 0.01 0.00 62 1006.4
20260904014530 59 245 12.0 18.0 0.00 0.04 0.00 63 1006.4
20260904013030 59 253 12.0 15.0 0.00 0.04 0.00 66 1006.4
20260904011530 60 229 12.0 18.0 0.00 0.04 0.00 62 1006.3
20260904010030 64 228 14.0 22.0 0.00 0.04 0.00 47 1006.2
20260904004533 65 166 5.0 9.0 0.00 0.05 0.00 40 1006.1
20260904003032 66 161 6.0 10.0 0.00 0.05 0.00 39 1006.0
20260904001526 66 165 5.0 13.0 0.00 0.05 0.00 39 1006.1
20260904000024 66 161 5.0 12.0 0.00 0.05 0.00 39 1006.1
20260903234522 65 158 8.0 11.0 0.00 0.08 0.00 40 1006.4
20260903233022 65 189 8.0 13.0 0.00 0.08 0.00 38 1006.5
20260903231524 65 149 7.0 13.0 0.00 0.08 0.00 38 1006.5
20260903230032 65 166 9.0 13.0 0.00 0.08 0.00 39 1006.9
20260903224520 65 186 10.0 14.0 0.00 0.10 0.00 40 1007.1